EW0762 Weather Reports


Display with metric or nautical units.
time (UTC)temp
F
wind
direction
speed
MPH
gust
MPH
rain 1hr
in
rain 24hr
in
rain mn
in
humidity
%
barometer
mb
20200329064716 54 217 8.0 14.0 0.00 0.29 0.00 43 996.7
20200329064216 54 199 8.0 14.0 0.00 0.29 0.00 43 996.6
20200329063717 54 196 8.0 14.0 0.00 0.29 0.00 43 996.6
20200329063216 53 199 6.0 9.0 0.00 0.29 0.00 45 996.4
20200329062716 53 180 6.0 8.0 0.00 0.29 0.00 44 996.5
20200329062216 53 195 4.0 6.0 0.00 0.29 0.00 44 996.4
20200329061716 53 205 1.0 7.0 0.00 0.29 0.00 44 996.4
20200329061216 53 195 3.0 7.0 0.00 0.29 0.00 44 996.3
20200329060716 53 191 2.0 6.0 0.00 0.29 0.00 44 996.4
20200329060216 53 206 2.0 6.0 0.00 0.29 0.00 44 996.3
20200329055716 53 202 2.0 6.0 0.00 0.29 0.00 44 996.3
20200329055216 53 200 3.0 6.0 0.00 0.29 0.00 44 996.3
20200329054716 54 205 2.0 5.0 0.00 0.29 0.00 43 996.3
20200329054216 54 191 0.0 6.0 0.00 0.29 0.00 43 996.3
20200329053716 54 196 2.0 6.0 0.00 0.29 0.00 42 996.2
20200329053216 54 205 2.0 5.0 0.00 0.29 0.00 41 996.2
20200329052716 55 188 2.0 9.0 0.00 0.29 0.00 40 996.2
20200329052216 55 190 2.0 9.0 0.00 0.29 0.00 40 996.3
20200329051716 55 202 3.0 6.0 0.00 0.29 0.00 40 996.2
20200329051216 56 198 3.0 7.0 0.00 0.29 0.00 39 996.4
20200329050716 56 197 3.0 9.0 0.00 0.29 0.00 39 996.3
20200329050216 56 202 4.0 9.0 0.00 0.29 0.00 39 996.3
20200329045716 56 202 4.0 9.0 0.00 0.29 0.29 39 996.4
20200329045216 57 206 5.0 9.0 0.00 0.29 0.29 39 996.4
20200329044716 56 200 6.0 9.0 0.00 0.29 0.29 39 996.6
20200329044216 57 191 5.0 8.0 0.00 0.29 0.29 39 996.7
20200329043716 57 192 5.0 8.0 0.00 0.29 0.29 39 996.8
20200329043216 57 200 2.0 7.0 0.00 0.29 0.29 39 996.9
20200329042716 57 192 2.0 6.0 0.00 0.29 0.29 39 997.0
20200329042216 57 205 3.0 8.0 0.00 0.29 0.29 39 997.2
20200329041716 58 186 4.0 8.0 0.00 0.29 0.29 39 997.0
20200329041216 58 210 4.0 9.0 0.00 0.29 0.29 39 997.0
20200329040716 58 190 3.0 9.0 0.00 0.29 0.29 39 997.1
20200329040216 58 195 4.0 9.0 0.00 0.29 0.29 39 997.2
20200329035716 58 188 4.0 9.0 0.00 0.29 0.29 39 997.2
20200329035216 58 192 5.0 9.0 0.00 0.29 0.29 39 997.2
20200329034716 58 177 5.0 8.0 0.00 0.29 0.29 40 997.0
20200329034216 58 180 5.0 8.0 0.00 0.29 0.29 42 997.1
20200329033716 58 194 4.0 8.0 0.00 0.29 0.29 42 997.2
20200329033216 58 200 4.0 6.0 0.00 0.29 0.29 42 997.2
20200329032716 59 184 1.0 6.0 0.00 0.29 0.29 42 997.2
20200329032216 59 202 3.0 7.0 0.00 0.29 0.29 42 997.1
20200329031716 60 174 4.0 8.0 0.00 0.29 0.29 42 997.0
20200329031216 60 222 4.0 9.0 0.00 0.29 0.29 42 996.9
20200329030716 61 202 6.0 10.0 0.00 0.29 0.29 41 996.8
20200329030216 61 202 6.0 10.0 0.00 0.29 0.29 41 996.7
20200329025716 61 188 6.0 10.0 0.04 0.29 0.29 42 996.6
20200329025216 62 200 5.0 11.0 0.04 0.29 0.29 42 996.6
20200329024717 62 193 6.0 11.0 0.04 0.29 0.29 44 996.7
20200329024216 63 202 7.0 11.0 0.04 0.29 0.29 47 996.6
20200329023716 64 188 6.0 11.0 0.04 0.29 0.29 52 996.6
20200329023216 64 183 7.0 11.0 0.04 0.29 0.29 60 996.5
20200329022717 65 192 5.0 13.0 0.04 0.29 0.29 70 996.4
20200329022216 65 193 7.0 15.0 0.04 0.29 0.29 74 996.3
20200329021716 65 197 9.0 24.0 0.04 0.29 0.29 73 996.2
20200329021216 66 160 16.0 24.0 0.04 0.29 0.29 75 995.7
20200329020716 66 152 7.0 14.0 0.04 0.29 0.29 74 995.3
20200329020216 66 172 6.0 14.0 0.04 0.29 0.29 73 995.6
20200329015716 66 170 8.0 14.0 0.00 0.25 0.25 72 995.4
20200329015216 67 185 7.0 13.0 0.00 0.25 0.25 71 995.6
20200329014716 67 194 7.0 14.0 0.00 0.25 0.25 71 995.5
20200329014217 67 180 9.0 14.0 0.00 0.25 0.25 71 995.7
20200329013716 67 194 10.0 17.0 0.00 0.25 0.25 71 995.6
20200329013216 67 174 8.0 17.0 0.00 0.25 0.25 71 996.0
20200329012716 67 160 10.0 19.0 0.00 0.25 0.25 71 995.8
20200329012216 67 166 7.0 19.0 0.00 0.25 0.25 71 995.7
20200329011716 67 185 9.0 16.0 0.00 0.25 0.25 71 995.6
20200329011216 67 183 10.0 13.0 0.00 0.25 0.25 71 995.4
20200329010716 67 186 9.0 15.0 0.00 0.25 0.25 71 995.5
20200329010216 67 186 9.0 15.0 0.00 0.25 0.25 70 995.4
20200329005716 67 174 8.0 13.0 0.00 0.25 0.25 70 995.5
20200329005217 67 164 9.0 15.0 0.00 0.25 0.25 70 995.6
20200329004734 67 196 9.0 15.0 0.00 0.25 0.25 69 995.7
20200329004216 67 170 8.0 15.0 0.00 0.25 0.25 68 995.8
20200329003717 67 172 6.0 15.0 0.00 0.25 0.25 67 995.7
20200329003216 67 192 8.0 15.0 0.00 0.25 0.25 66 995.8
20200329002716 67 168 7.0 15.0 0.00 0.25 0.25 65 995.9
20200329002216 67 180 8.0 19.0 0.00 0.25 0.25 64 996.1
20200329001716 67 180 9.0 19.0 0.00 0.25 0.25 63 996.2
20200329001217 67 172 7.0 16.0 0.00 0.25 0.25 63 996.2
20200329000716 67 170 7.0 15.0 0.00 0.25 0.25 62 996.3
20200329000216 68 200 7.0 17.0 0.00 0.25 0.25 62 996.3
20200328235716 68 182 10.0 21.0 0.00 0.25 0.25 63 996.3
20200328235216 68 188 9.0 21.0 0.00 0.25 0.25 62 996.3
20200328234716 68 188 9.0 16.0 0.00 0.25 0.25 62 996.4
20200328234216 68 200 9.0 15.0 0.00 0.25 0.25 61 996.4
20200328233716 68 166 7.0 15.0 0.00 0.25 0.25 61 996.5
20200328233217 68 180 6.0 17.0 0.00 0.25 0.25 60 996.5
20200328232716 68 150 7.0 17.0 0.00 0.25 0.25 59 996.5
20200328232216 68 194 8.0 17.0 0.00 0.25 0.25 60 996.6
20200328231716 68 185 8.0 13.0 0.00 0.25 0.25 60 996.6
20200328231216 68 188 8.0 13.0 0.00 0.25 0.25 60 996.6
20200328230716 68 188 9.0 15.0 0.00 0.25 0.25 62 996.4
20200328230217 68 188 7.0 17.0 0.00 0.25 0.25 65 996.5
20200328225716 68 188 7.0 19.0 0.00 0.25 0.25 71 996.5
20200328225216 68 177 10.0 19.0 0.00 0.25 0.25 74 996.6
20200328224716 68 172 5.0 13.0 0.00 0.25 0.25 81 996.7
20200328224216 67 182 8.0 13.0 0.00 0.25 0.25 86 996.5
20200328223716 67 166 4.0 10.0 0.00 0.25 0.25 99 996.4
20200328223216 67 165 6.0 10.0 0.00 0.25 0.25 100 996.6
20200328222717 67 143 5.0 11.0 0.00 0.25 0.25 100 996.8
20200328222216 66 145 7.0 11.0 0.00 0.25 0.25 100 997.0
20200328221716 66 155 5.0 10.0 0.00 0.25 0.25 100 997.0
20200328221216 66 141 3.0 10.0 0.00 0.25 0.25 100 997.1
20200328220716 66 116 3.0 6.0 0.00 0.25 0.25 100 997.4
20200328220216 65 112 1.0 6.0 0.00 0.25 0.25 100 997.4
20200328215717 65 75 1.0 4.0 0.00 0.25 0.25 100 997.4
20200328215216 65 135 0.0 4.0 0.00 0.25 0.25 100 997.4
20200328214716 65 92 0.0 3.0 0.00 0.25 0.25 100 997.3
20200328214216 64 197 0.0 3.0 0.00 0.25 0.25 100 997.5
20200328213716 64 42 0.0 3.0 0.00 0.25 0.25 100 997.6
20200328213217 64 138 0.0 3.0 0.00 0.25 0.25 100 997.9
20200328212716 64 118 0.0 3.0 0.00 0.25 0.25 100 998.0
20200328212217 63 140 0.0 5.0 0.00 0.25 0.25 100 998.3
20200328211716 63 129 1.0 6.0 0.00 0.25 0.25 100 998.6
20200328211216 63 125 2.0 6.0 0.00 0.25 0.25 100 998.7
20200328210716 62 143 1.0 6.0 0.00 0.25 0.25 100 998.7
20200328210216 62 112 1.0 8.0 0.00 0.25 0.25 100 998.8
20200328205717 62 130 1.0 8.0 0.00 0.25 0.25 100 999.0
20200328205216 62 124 1.0 4.0 0.00 0.25 0.25 100 999.1
20200328204717 62 138 0.0 4.0 0.00 0.25 0.25 100 999.0
20200328204217 61 76 0.0 3.0 0.00 0.25 0.25 100 999.2
20200328203716 61 338 0.0 2.0 0.00 0.25 0.25 100 999.4
20200328203217 61 0 0.0 2.0 0.00 0.25 0.25 100 999.4
20200328202717 61 22 0.0 4.0 0.00 0.25 0.25 100 999.6
20200328202216 61 221 1.0 9.0 0.00 0.25 0.25 100 999.8
20200328201716 61 106 1.0 9.0 0.00 0.25 0.25 100 999.9
20200328201216 61 105 0.0 4.0 0.00 0.25 0.25 100 1000.0
20200328200717 61 321 1.0 4.0 0.00 0.25 0.25 100 1000.1
20200328200216 61 132 1.0 4.0 0.00 0.25 0.25 100 1000.5
20200328195716 61 96 1.0 4.0 0.00 0.25 0.25 100 1000.6
20200328195216 61 132 1.0 4.0 0.00 0.25 0.25 100 1000.6
20200328194717 61 110 0.0 5.0 0.00 0.25 0.25 100 1000.7
20200328194216 61 174 2.0 6.0 0.00 0.25 0.25 100 1000.7
20200328193756 61 175 2.0 6.0 0.00 0.25 0.25 100 1000.7
20200328193217 61 110 0.0 7.0 0.00 0.25 0.25 100 1000.7
20200328192717 61 146 2.0 7.0 0.00 0.25 0.25 100 1001.0
20200328192217 61 166 1.0 4.0 0.00 0.25 0.25 100 1001.1
20200328191717 60 148 2.0 4.0 0.00 0.25 0.25 100 1000.9
20200328191216 60 142 0.0 4.0 0.00 0.25 0.25 100 1000.9
20200328190717 60 302 0.0 9.0 0.00 0.25 0.25 100 1000.6
20200328190217 60 96 1.0 9.0 0.00 0.25 0.25 100 1000.7
20200328185716 60 158 2.0 7.0 0.00 0.25 0.25 100 1000.9
20200328185217 59 65 0.0 4.0 0.00 0.25 0.25 100 1000.8
20200328184717 59 56 0.0 4.0 0.00 0.25 0.25 100 1000.5
20200328184216 59 65 1.0 3.0 0.00 0.25 0.25 100 1000.7
20200328183717 59 17 0.0 3.0 0.00 0.25 0.25 100 1000.5
20200328183217 59 31 0.0 6.0 0.00 0.25 0.25 100 1000.4
20200328182717 59 72 1.0 6.0 0.00 0.25 0.25 100 1000.5
20200328182217 58 90 0.0 6.0 0.00 0.25 0.25 100 1000.5
20200328181716 58 127 1.0 6.0 0.00 0.25 0.25 100 1000.8
20200328181217 58 122 1.0 4.0 0.00 0.25 0.25 100 1001.3
20200328180717 57 120 0.0 3.0 0.00 0.25 0.25 100 1001.4
20200328180217 57 125 0.0 2.0 0.00 0.25 0.25 100 1001.4
20200328175717 57 20 0.0 1.0 0.00 0.25 0.25 100 1001.4
20200328175217 57 87 0.0 1.0 0.04 0.25 0.25 100 1001.3
20200328174717 57 20 0.0 1.0 0.08 0.25 0.25 100 1001.1
20200328174217 57 28 0.0 2.0 0.08 0.25 0.25 100 1001.0
20200328173717 57 30 0.0 4.0 0.13 0.25 0.25 100 1000.8
20200328173217 57 25 0.0 4.0 0.13 0.25 0.25 100 1000.7
20200328172717 57 28 0.0 2.0 0.17 0.25 0.25 100 1000.8
20200328172217 56 25 0.0 2.0 0.17 0.25 0.25 100 1001.0
20200328171717 55 12 0.0 2.0 0.21 0.25 0.25 100 1001.6
20200328171217 54 68 0.0 1.0 0.21 0.25 0.25 100 1001.9
20200328170716 54 18 0.0 1.0 0.21 0.25 0.25 100 1002.3
20200328170216 53 26 0.0 3.0 0.21 0.25 0.25 100 1003.1
20200328165717 52 124 0.0 3.0 0.21 0.25 0.25 100 1003.9
20200328165216 52 140 0.0 6.0 0.17 0.20 0.20 100 1004.0
20200328164717 52 167 2.0 6.0 0.13 0.17 0.17 100 1004.2
20200328164217 52 110 0.0 2.0 0.13 0.17 0.17 100 1004.7
20200328163716 52 196 0.0 2.0 0.08 0.12 0.12 100 1004.5
20200328162718 52 36 0.0 0.0 0.04 0.08 0.08 100 1004.2
20200328162216 52 100 0.0 0.0 0.04 0.08 0.08 100 1004.5
20200328161717 52 77 0.0 0.0 0.00 0.04 0.04 100 1004.7
20200328161216 51 31 0.0 0.0 0.00 0.04 0.04 100 1004.6
20200328160717 51 48 0.0 0.0 0.00 0.04 0.04 100 1004.5
20200328160217 51 35 0.0 0.0 0.00 0.04 0.04 100 1004.1
20200328155717 51 64 0.0 0.0 0.00 0.04 0.04 100 1004.0
20200328155217 51 8 0.0 0.0 0.00 0.04 0.04 100 1004.0
20200328154717 51 14 0.0 0.0 0.00 0.04 0.04 100 1003.8
20200328154216 51 40 0.0 0.0 0.00 0.04 0.04 100 1003.8
20200328153717 51 32 0.0 0.0 0.00 0.04 0.04 100 1004.1
20200328153217 51 22 0.0 0.0 0.00 0.04 0.04 100 1004.2
20200328152717 51 26 0.0 0.0 0.00 0.04 0.04 100 1004.0
20200328151627 51 355 0.0 4.0 0.00 0.04 0.04 100 1003.6
20200328151127 51 26 1.0 5.0 0.00 0.04 0.04 100 1003.7
20200328150627 51 34 0.0 5.0 0.00 0.04 0.04 100 1003.7
20200328150127 51 31 0.0 3.0 0.00 0.04 0.04 100 1003.7
20200328145627 51 32 0.0 2.0 0.00 0.04 0.04 100 1003.6
20200328145127 51 38 0.0 4.0 0.00 0.08 0.04 100 1003.6
20200328144627 51 22 1.0 4.0 0.00 0.08 0.04 100 1003.4
20200328144127 51 31 1.0 3.0 0.00 0.08 0.04 100 1003.3
20200328143627 51 14 0.0 2.0 0.00 0.08 0.04 100 1003.2
20200328143127 51 18 0.0 2.0 0.00 0.08 0.04 100 1003.3
20200328142627 50 3 0.0 2.0 0.00 0.08 0.04 100 1003.3
20200328142127 50 45 0.0 2.0 0.00 0.08 0.04 100 1003.0
20200328141627 50 28 0.0 5.0 0.00 0.08 0.04 100 1002.9
20200328141127 50 22 0.0 5.0 0.00 0.08 0.04 100 1002.8
20200328140627 50 22 1.0 5.0 0.00 0.08 0.04 100 1002.7
20200328140127 50 55 2.0 5.0 0.00 0.08 0.04 100 1002.5
20200328135627 50 25 1.0 4.0 0.00 0.08 0.04 100 1002.4
20200328135127 50 32 0.0 3.0 0.00 0.08 0.04 100 1002.5
20200328134627 50 28 0.0 3.0 0.00 0.08 0.04 100 1002.6
20200328134127 50 28 0.0 0.0 0.00 0.08 0.04 100 1003.1
20200328133627 50 28 0.0 0.0 0.00 0.08 0.04 100 1003.0
20200328133127 50 28 0.0 0.0 0.00 0.08 0.04 100 1003.1
20200328132627 49 6 0.0 0.0 0.00 0.08 0.04 100 1003.1
20200328132127 49 350 0.0 0.0 0.00 0.08 0.04 100 1003.3
20200328131627 49 5 0.0 0.0 0.00 0.08 0.04 100 1002.9
20200328131127 49 11 0.0 1.0 0.00 0.08 0.04 100 1002.8
20200328130627 49 3 0.0 1.0 0.00 0.08 0.04 100 1002.6
20200328130127 49 25 0.0 1.0 0.00 0.08 0.04 100 1002.4
20200328125627 49 22 0.0 1.0 0.00 0.08 0.04 100 1002.4
20200328125127 49 354 0.0 2.0 0.00 0.08 0.04 100 1002.5
20200328124627 49 357 0.0 2.0 0.00 0.08 0.04 100 1002.6
20200328124127 49 349 0.0 0.0 0.00 0.08 0.04 100 1002.6
20200328123627 49 29 0.0 0.0 0.00 0.08 0.04 100 1002.3
20200328123127 49 8 0.0 0.0 0.00 0.08 0.04 100 1002.4
20200328122627 49 352 0.0 0.0 0.00 0.08 0.04 100 1002.2
20200328122314 49 348 0.0 3.0 0.00 0.08 0.04 100 1002.1
20200328121627 49 357 0.0 3.0 0.00 0.08 0.04 100 1002.1
20200328121127 49 28 0.0 0.0 0.00 0.08 0.04 100 1002.1
20200328120627 49 345 0.0 0.0 0.00 0.08 0.04 100 1002.3
20200328120127 49 357 0.0 4.0 0.00 0.08 0.04 100 1001.9
20200328115627 49 340 0.0 4.0 0.00 0.08 0.04 100 1002.0
20200328115127 49 349 0.0 2.0 0.00 0.08 0.04 100 1001.5
20200328114627 50 346 0.0 1.0 0.00 0.08 0.04 100 1001.5
20200328114127 50 20 0.0 0.0 0.00 0.08 0.04 100 1001.5
20200328113627 50 22 0.0 0.0 0.00 0.08 0.04 100 1001.4
20200328113127 50 32 0.0 0.0 0.00 0.08 0.04 100 1001.4
20200328112627 49 30 0.0 4.0 0.00 0.08 0.04 100 1001.3
20200328112125 49 30 0.0 4.0 0.00 0.08 0.04 100 1001.2
20200328111625 49 26 0.0 0.0 0.00 0.08 0.04 100 1001.2
20200328111125 49 28 0.0 0.0 0.00 0.08 0.04 100 1001.2
20200328110625 49 37 0.0 0.0 0.00 0.08 0.04 100 1001.2
20200328110125 49 22 0.0 2.0 0.00 0.08 0.04 100 1001.0
20200328105625 49 20 0.0 2.0 0.00 0.08 0.04 100 1000.9
20200328105125 49 15 0.0 0.0 0.00 0.08 0.04 100 1000.8
20200328104625 49 32 0.0 2.0 0.00 0.08 0.04 100 1000.8
20200328104125 49 20 0.0 2.0 0.00 0.08 0.04 100 1000.9
20200328103625 49 28 0.0 0.0 0.00 0.08 0.04 100 1000.9
20200328103125 49 8 0.0 0.0 0.00 0.08 0.04 100 1000.9
20200328102625 50 50 0.0 0.0 0.00 0.08 0.04 100 1000.8
20200328102125 50 349 0.0 2.0 0.00 0.08 0.04 100 1000.5
20200328101625 50 20 0.0 2.0 0.00 0.08 0.04 100 1000.6
20200328101125 50 28 0.0 1.0 0.00 0.08 0.04 100 1000.6
20200328100625 50 32 0.0 0.0 0.00 0.08 0.04 100 1000.6
20200328100125 50 25 0.0 0.0 0.00 0.08 0.04 100 1000.6
20200328095625 50 29 0.0 0.0 0.00 0.08 0.04 100 1000.7
20200328095125 50 34 0.0 1.0 0.00 0.08 0.04 100 1000.6
20200328094625 50 37 0.0 1.0 0.00 0.08 0.04 100 1000.7
20200328094125 50 17 0.0 1.0 0.00 0.08 0.04 100 1000.7
20200328093625 50 15 0.0 0.0 0.00 0.08 0.04 100 1000.7
20200328093130 50 32 0.0 0.0 0.00 0.08 0.04 100 1000.8
20200328092625 50 16 0.0 0.0 0.00 0.08 0.04 100 1000.8
20200328091125 50 34 0.0 0.0 0.00 0.08 0.04 100 1000.6
20200328090625 50 50 0.0 3.0 0.00 0.08 0.04 100 1000.6
20200328090125 50 48 0.0 3.0 0.00 0.08 0.04 100 1000.6
20200328085625 50 28 0.0 3.0 0.00 0.08 0.04 100 1000.6
20200328085125 50 38 0.0 3.0 0.00 0.08 0.04 100 1000.6
20200328084625 50 39 0.0 7.0 0.00 0.08 0.04 100 1000.5
20200328084125 50 42 1.0 7.0 0.00 0.08 0.04 100 1000.6
20200328083625 50 15 1.0 6.0 0.00 0.08 0.04 99 1000.7
20200328083125 50 28 2.0 5.0 0.00 0.08 0.04 99 1000.8
20200328082625 51 25 1.0 5.0 0.00 0.08 0.04 98 1000.7
20200328082125 51 28 1.0 6.0 0.04 0.08 0.04 97 1000.8
20200328081625 51 15 1.0 6.0 0.04 0.08 0.04 96 1000.9
20200328081125 51 20 1.0 5.0 0.04 0.08 0.04 94 1000.8
20200328080625 51 45 1.0 5.0 0.04 0.08 0.04 93 1000.8
20200328080125 51 11 0.0 3.0 0.04 0.08 0.04 93 1001.4
20200328075625 51 20 0.0 4.0 0.04 0.08 0.04 93 1001.5
20200328075125 52 8 1.0 6.0 0.04 0.08 0.04 94 1001.7
20200328074625 52 8 0.0 6.0 0.04 0.08 0.04 95 1001.7
20200328074125 52 10 1.0 4.0 0.04 0.08 0.04 96 1002.1
20200328073626 52 17 1.0 4.0 0.04 0.08 0.04 98 1001.8
20200328073125 52 31 0.0 3.0 0.04 0.08 0.04 96 1001.6
20200328072625 52 11 0.0 5.0 0.04 0.08 0.04 96 1002.0
20200328072125 52 0 2.0 5.0 0.00 0.04 0.00 96 1002.2
20200328071625 52 34 0.0 2.0 0.00 0.04 0.00 96 1002.4
20200328071125 53 31 0.0 5.0 0.00 0.04 0.00 96 1002.0
20200328070625 53 31 0.0 6.0 0.00 0.04 0.00 97 1001.9
20200328070125 53 341 3.0 6.0 0.00 0.04 0.00 97 1002.2
20200328065625 53 8 0.0 2.0 0.00 0.04 0.00 97 1002.2
20200328065125 53 8 1.0 2.0 0.00 0.04 0.00 95 1002.1